Location: Doverdale
(52.2833°N, 2.2000°W)
Time: 14:44:14
(UTC+00:00)

YAOGAN 1 - Pass Details

Date: 29 October 2020
Orbit: 618 x 620 km, 97.9° (Epoch: 28 November)

Event Time Altitude Azimuth Distance (km) Brightness Sun altitude
Rises 18:52:28 0° 172° (S) 2,887 5.9 -20.0°
Reaches altitude 10° 18:54:39 10° 176° (S) 1,986 5.1 -20.4°
Maximum altitude 18:58:57 64° 258° (WSW) 694 3.0 -21.0°
Drops below altitude 10° 19:03:16 10° 340° (NNW) 2,001 5.5 -21.7°
Sets 19:05:30 0° 344° (NNW) 2,912 6.3 -22.0°
